AMX304T MMGL-MMAA

Flight info

Callsign AMX304T
Flight time 0h 50m
Altitude 35000
Route EMIRI1B EMIRI DCT ZIH J1 AVURO AVURO1B
Aircraft B738/M-SDE2E3FGHIRWXY/LB1

Departure

Time 2026-05-07 08:18
Airport Guadalajara International Airport (MMGL)

Arrival

Time 2026-05-07 09:09
Airport General Juan N. Álvarez International Airport (MMAA)
Time Latitude Longitude Altitude Speed Heading
2026-05-07 07:59 20.52372 -103.29901 5025 ft 0 kts 18°
2026-05-07 08:08 20.52370 -103.29902 5037 ft 0 kts 18°
2026-05-07 08:09 20.52359 -103.29906 5037 ft 2 kts 22°
2026-05-07 08:09 20.52343 -103.29913 5028 ft 2 kts 28°
2026-05-07 08:09 20.52330 -103.29923 5026 ft 2 kts 47°
2026-05-07 08:09 20.52323 -103.29939 5028 ft 2 kts 101°
2026-05-07 08:10 20.52325 -103.29946 5028 ft 0 kts 113°
2026-05-07 08:13 20.52324 -103.29944 5028 ft 1 kts 113°
2026-05-07 08:13 20.52316 -103.29925 5025 ft 5 kts 113°
2026-05-07 08:14 20.52297 -103.29880 5028 ft 9 kts 116°
2026-05-07 08:14 20.52270 -103.29822 5028 ft 0 kts 116°
2026-05-07 08:14 20.52264 -103.29810 5028 ft 3 kts 116°
2026-05-07 08:14 20.52248 -103.29776 5028 ft 6 kts 123°
2026-05-07 08:15 20.52208 -103.29760 5028 ft 7 kts 181°
2026-05-07 08:15 20.52156 -103.29777 5028 ft 9 kts 199°
2026-05-07 08:15 20.52090 -103.29795 5028 ft 9 kts 171°
2026-05-07 08:15 20.52048 -103.29742 5028 ft 11 kts 116°
2026-05-07 08:16 20.52012 -103.29660 5028 ft 13 kts 115°
2026-05-07 08:16 20.51967 -103.29564 5027 ft 16 kts 123°
2026-05-07 08:16 20.51895 -103.29548 5029 ft 10 kts 198°
2026-05-07 08:16 20.51849 -103.29569 5029 ft 12 kts 205°
2026-05-07 08:17 20.51832 -103.29642 5029 ft 12 kts 292°
2026-05-07 08:17 20.51945 -103.29917 5027 ft 81 kts 294°
2026-05-07 08:17 20.52271 -103.30723 5029 ft 154 kts 296°
2026-05-07 08:17 20.52660 -103.31570 5092 ft 194 kts 296°
2026-05-07 08:18 20.53212 -103.32831 5639 ft 211 kts 294°
2026-05-07 08:18 20.53819 -103.34275 6304 ft 215 kts 293°
2026-05-07 08:18 20.54377 -103.35771 6781 ft 226 kts 292°
2026-05-07 08:19 20.54994 -103.37370 7117 ft 237 kts 293°
2026-05-07 08:19 20.55645 -103.39016 7646 ft 244 kts 292°
2026-05-07 08:19 20.56315 -103.40702 8359 ft 248 kts 292°
2026-05-07 08:19 20.56993 -103.42389 9186 ft 249 kts 292°
2026-05-07 08:20 20.57682 -103.44102 9919 ft 255 kts 292°
2026-05-07 08:20 20.58386 -103.45859 10607 ft 259 kts 292°
2026-05-07 08:20 20.58977 -103.47703 11207 ft 269 kts 274°
2026-05-07 08:20 20.58716 -103.49740 11420 ft 291 kts 244°
2026-05-07 08:21 20.57410 -103.51463 11594 ft 313 kts 214°
2026-05-07 08:21 20.55316 -103.52311 11789 ft 335 kts 185°
2026-05-07 08:21 20.52932 -103.52065 11957 ft 356 kts 169°
2026-05-07 08:21 20.50417 -103.51645 12094 ft 375 kts 175°
2026-05-07 08:22 20.47778 -103.51310 12220 ft 392 kts 164°
2026-05-07 08:22 20.45350 -103.49935 12557 ft 402 kts 140°
2026-05-07 08:22 20.43612 -103.47600 13172 ft 404 kts 121°
2026-05-07 08:22 20.42149 -103.45051 13858 ft 403 kts 124°
2026-05-07 08:23 20.40571 -103.42572 14284 ft 407 kts 126°
2026-05-07 08:23 20.38920 -103.40118 14694 ft 410 kts 127°
2026-05-07 08:23 20.37939 -103.38693 14944 ft 412 kts 128°
2026-05-07 08:23 20.36202 -103.36193 15369 ft 414 kts 128°
2026-05-07 08:24 20.34506 -103.33765 15839 ft 415 kts 128°
2026-05-07 08:24 20.32774 -103.31284 16255 ft 418 kts 128°
2026-05-07 08:24 20.31034 -103.28788 16631 ft 421 kts 128°
2026-05-07 08:24 20.29286 -103.26279 17013 ft 423 kts 128°
2026-05-07 08:25 20.27533 -103.23759 17380 ft 425 kts 128°
2026-05-07 08:25 20.25757 -103.21206 18411 ft 430 kts 128°
2026-05-07 08:25 20.23964 -103.18629 18702 ft 436 kts 128°
2026-05-07 08:25 20.22134 -103.16000 18887 ft 447 kts 127°
2026-05-07 08:26 20.18407 -103.10643 19645 ft 452 kts 127°
2026-05-07 08:26 20.16524 -103.07939 20045 ft 454 kts 127°
2026-05-07 08:26 20.14641 -103.05236 20397 ft 457 kts 127°
2026-05-07 08:27 20.12743 -103.02513 20724 ft 460 kts 127°
2026-05-07 08:27 20.10829 -102.99770 20977 ft 464 kts 127°
2026-05-07 08:27 20.08895 -102.97000 21241 ft 466 kts 127°
2026-05-07 08:27 20.07623 -102.95177 21414 ft 468 kts 127°
2026-05-07 08:28 20.05673 -102.92385 21694 ft 469 kts 127°
2026-05-07 08:28 20.03740 -102.89617 21012 ft 468 kts 128°
2026-05-07 08:28 20.01848 -102.86908 22382 ft 470 kts 129°
2026-05-07 08:28 19.99877 -102.84095 22517 ft 475 kts 127°
2026-05-07 08:29 19.97889 -102.81257 22635 ft 480 kts 127°
2026-05-07 08:29 19.95899 -102.78414 22996 ft 478 kts 127°
2026-05-07 08:29 19.93944 -102.75621 23307 ft 478 kts 127°
2026-05-07 08:29 19.91930 -102.72747 23497 ft 481 kts 127°
2026-05-07 08:30 19.89923 -102.69883 23644 ft 484 kts 127°
2026-05-07 08:30 19.87914 -102.67017 23830 ft 485 kts 127°
2026-05-07 08:30 19.85893 -102.64137 24032 ft 486 kts 127°
2026-05-07 08:30 19.83874 -102.61262 24295 ft 486 kts 127°
2026-05-07 08:31 19.81702 -102.58561 24512 ft 487 kts 135°
2026-05-07 08:31 19.79125 -102.56213 24698 ft 488 kts 144°
2026-05-07 08:31 19.76267 -102.54274 24905 ft 489 kts 153°
2026-05-07 08:31 19.73189 -102.52707 25057 ft 491 kts 155°
2026-05-07 08:32 19.70084 -102.51196 25266 ft 492 kts 155°
2026-05-07 08:32 19.66961 -102.49687 25477 ft 492 kts 155°
2026-05-07 08:32 19.63854 -102.48176 25690 ft 493 kts 155°
2026-05-07 08:32 19.60735 -102.46645 25870 ft 494 kts 155°
2026-05-07 08:33 19.57643 -102.45111 25058 ft 485 kts 157°
2026-05-07 08:33 19.54611 -102.43598 25514 ft 478 kts 156°
2026-05-07 08:33 19.51608 -102.42097 25624 ft 479 kts 157°
2026-05-07 08:33 19.48577 -102.40583 25644 ft 482 kts 156°
2026-05-07 08:34 19.45538 -102.39065 25694 ft 483 kts 156°
2026-05-07 08:34 19.42493 -102.37544 25792 ft 484 kts 157°
2026-05-07 08:34 19.39448 -102.36024 25885 ft 484 kts 156°
2026-05-07 08:34 19.36394 -102.34501 25968 ft 484 kts 156°
2026-05-07 08:35 19.33347 -102.32982 26044 ft 485 kts 156°
2026-05-07 08:35 19.30296 -102.31461 26122 ft 485 kts 157°
2026-05-07 08:35 19.27244 -102.29940 26232 ft 484 kts 156°
2026-05-07 08:35 19.24198 -102.28423 26340 ft 484 kts 156°
2026-05-07 08:36 19.21157 -102.26909 26435 ft 483 kts 157°
2026-05-07 08:36 19.18108 -102.25393 26539 ft 484 kts 156°
2026-05-07 08:36 19.15062 -102.23878 26633 ft 483 kts 156°
2026-05-07 08:36 19.12017 -102.22365 26748 ft 483 kts 157°
2026-05-07 08:37 19.08977 -102.20854 26847 ft 483 kts 156°
2026-05-07 08:37 19.05941 -102.19347 26960 ft 483 kts 156°
2026-05-07 08:37 19.02895 -102.17834 27066 ft 483 kts 156°
2026-05-07 08:37 18.99857 -102.16326 27173 ft 483 kts 156°
2026-05-07 08:38 18.96927 -102.14872 27298 ft 482 kts 156°
2026-05-07 08:38 18.93928 -102.13385 27429 ft 482 kts 156°
2026-05-07 08:38 18.90843 -102.11856 27554 ft 482 kts 156°
2026-05-07 08:38 18.87850 -102.10374 27674 ft 482 kts 156°
2026-05-07 08:39 18.84809 -102.08867 27789 ft 482 kts 156°
2026-05-07 08:39 18.81779 -102.07368 27911 ft 482 kts 156°
2026-05-07 08:39 18.78737 -102.05862 28038 ft 482 kts 156°
2026-05-07 08:39 18.75699 -102.04359 28201 ft 482 kts 157°
2026-05-07 08:40 18.72665 -102.02858 28357 ft 482 kts 156°
2026-05-07 08:40 18.69631 -102.01359 28486 ft 482 kts 156°
2026-05-07 08:40 18.66601 -101.99862 28619 ft 482 kts 156°
2026-05-07 08:40 18.63566 -101.98363 28780 ft 482 kts 156°
2026-05-07 08:41 18.60531 -101.96865 28941 ft 481 kts 156°
2026-05-07 08:41 18.57453 -101.95345 29103 ft 481 kts 156°
2026-05-07 08:41 18.54462 -101.93870 29260 ft 481 kts 156°
2026-05-07 08:41 18.51420 -101.92370 29434 ft 481 kts 156°
2026-05-07 08:42 18.48382 -101.90872 29582 ft 482 kts 156°
2026-05-07 08:42 18.45346 -101.89376 29756 ft 481 kts 156°
2026-05-07 08:42 18.42310 -101.87881 29945 ft 481 kts 156°
2026-05-07 08:42 18.39276 -101.86387 30131 ft 481 kts 156°
2026-05-07 08:43 18.36252 -101.84899 30305 ft 480 kts 156°
2026-05-07 08:43 18.33222 -101.83408 30470 ft 481 kts 156°
2026-05-07 08:43 18.30197 -101.81920 30624 ft 481 kts 156°
2026-05-07 08:43 18.27154 -101.80424 30805 ft 480 kts 156°
2026-05-07 08:44 18.24123 -101.78935 30974 ft 480 kts 156°
2026-05-07 08:44 18.21097 -101.77449 31159 ft 480 kts 156°
2026-05-07 08:44 18.18070 -101.75963 31339 ft 480 kts 156°
2026-05-07 08:44 18.15075 -101.74423 31515 ft 481 kts 152°
2026-05-07 08:45 18.12297 -101.72445 31692 ft 483 kts 143°
2026-05-07 08:45 18.09871 -101.70059 31895 ft 485 kts 134°
2026-05-07 08:45 18.07609 -101.67445 32133 ft 484 kts 134°
2026-05-07 08:45 18.05368 -101.64800 32321 ft 484 kts 133°
2026-05-07 08:46 18.03125 -101.62150 32524 ft 484 kts 133°
2026-05-07 08:46 18.00879 -101.59512 32729 ft 484 kts 134°
2026-05-07 08:46 17.98627 -101.56889 32979 ft 483 kts 134°
2026-05-07 08:46 17.96371 -101.54281 33205 ft 482 kts 134°
2026-05-07 08:47 17.94115 -101.51682 33418 ft 482 kts 134°
2026-05-07 08:47 17.91853 -101.49085 33641 ft 482 kts 134°
2026-05-07 08:47 17.89590 -101.46489 33895 ft 481 kts 134°
2026-05-07 08:47 17.87332 -101.43899 34116 ft 480 kts 134°
2026-05-07 08:48 17.85082 -101.41319 34338 ft 480 kts 134°
2026-05-07 08:48 17.82827 -101.38733 34533 ft 479 kts 134°
2026-05-07 08:48 17.80578 -101.36155 34715 ft 479 kts 134°
2026-05-07 08:48 17.78332 -101.33580 34920 ft 478 kts 134°
2026-05-07 08:49 17.73857 -101.28453 34978 ft 474 kts 134°
2026-05-07 08:49 17.69424 -101.23378 34985 ft 470 kts 134°
2026-05-07 08:50 17.67236 -101.20874 34962 ft 458 kts 134°
2026-05-07 08:50 17.65123 -101.18453 34968 ft 442 kts 134°
2026-05-07 08:50 17.63066 -101.16098 34538 ft 439 kts 134°
2026-05-07 08:50 17.60980 -101.13716 33541 ft 449 kts 134°
2026-05-07 08:51 17.58833 -101.11269 32453 ft 460 kts 134°
2026-05-07 08:51 17.56682 -101.08816 31437 ft 468 kts 133°
2026-05-07 08:51 17.54464 -101.06286 30474 ft 474 kts 133°
2026-05-07 08:51 17.52224 -101.03730 29466 ft 478 kts 133°
2026-05-07 08:52 17.49968 -101.01156 28449 ft 479 kts 133°
2026-05-07 08:52 17.47714 -100.98585 27465 ft 480 kts 134°
2026-05-07 08:52 17.45456 -100.96010 26459 ft 480 kts 134°
2026-05-07 08:52 17.43195 -100.93435 25499 ft 480 kts 134°
2026-05-07 08:53 17.40941 -100.90867 24758 ft 474 kts 134°
2026-05-07 08:53 17.38727 -100.88346 24134 ft 466 kts 134°
2026-05-07 08:53 17.36545 -100.85862 23467 ft 460 kts 134°
2026-05-07 08:53 17.34390 -100.83411 22642 ft 455 kts 134°
2026-05-07 08:54 17.32257 -100.80986 21850 ft 450 kts 134°
2026-05-07 08:54 17.30151 -100.78592 21098 ft 445 kts 133°
2026-05-07 08:54 17.28063 -100.76219 20367 ft 439 kts 133°
2026-05-07 08:54 17.26002 -100.73878 19654 ft 435 kts 133°
2026-05-07 08:55 17.23966 -100.71566 18982 ft 430 kts 133°
2026-05-07 08:55 17.22077 -100.69219 18295 ft 425 kts 124°
2026-05-07 08:55 17.20661 -100.66515 17556 ft 421 kts 117°
2026-05-07 08:55 17.19367 -100.63792 16866 ft 415 kts 116°
2026-05-07 08:56 17.18094 -100.61094 16179 ft 410 kts 116°
2026-05-07 08:56 17.16831 -100.58441 15487 ft 406 kts 116°
2026-05-07 08:56 17.15565 -100.55817 14815 ft 401 kts 116°
2026-05-07 08:56 17.14308 -100.53237 14168 ft 397 kts 116°
2026-05-07 08:57 17.13057 -100.50686 13501 ft 393 kts 116°
2026-05-07 08:57 17.11811 -100.48152 12721 ft 391 kts 117°
2026-05-07 08:57 17.10572 -100.45634 12078 ft 387 kts 117°
2026-05-07 08:57 17.09359 -100.43172 11877 ft 372 kts 117°
2026-05-07 08:58 17.08199 -100.40818 11760 ft 356 kts 117°
2026-05-07 08:58 17.07088 -100.38564 11660 ft 341 kts 117°
2026-05-07 08:58 17.06025 -100.36406 11576 ft 328 kts 117°
2026-05-07 08:58 17.04999 -100.34326 11481 ft 316 kts 117°
2026-05-07 08:59 17.04013 -100.32326 11399 ft 304 kts 117°
2026-05-07 08:59 17.03063 -100.30398 11320 ft 293 kts 116°
2026-05-07 08:59 17.02448 -100.29152 11211 ft 288 kts 117°
2026-05-07 08:59 17.01538 -100.27305 10985 ft 285 kts 116°
2026-05-07 09:00 17.00629 -100.25461 10658 ft 286 kts 117°
2026-05-07 09:00 16.99717 -100.23611 10338 ft 287 kts 117°
2026-05-07 09:00 16.98686 -100.21833 10012 ft 288 kts 128°
2026-05-07 09:00 16.97389 -100.20245 9699 ft 287 kts 132°
2026-05-07 09:01 16.96033 -100.18716 9400 ft 286 kts 133°
2026-05-07 09:01 16.94684 -100.17197 9098 ft 284 kts 133°
2026-05-07 09:01 16.93353 -100.15680 8794 ft 283 kts 133°
2026-05-07 09:01 16.92030 -100.14154 8491 ft 282 kts 133°
2026-05-07 09:02 16.90725 -100.12636 8211 ft 281 kts 132°
2026-05-07 09:02 16.89862 -100.11628 8019 ft 280 kts 132°
2026-05-07 09:02 16.89044 -100.10671 7797 ft 278 kts 132°
2026-05-07 09:02 16.87738 -100.09141 7188 ft 285 kts 133°
2026-05-07 09:03 16.86684 -100.07908 6865 ft 283 kts 133°
2026-05-07 09:03 16.85660 -100.06642 6550 ft 281 kts 126°
2026-05-07 09:03 16.84830 -100.04808 6155 ft 279 kts 108°
2026-05-07 09:03 16.84305 -100.02868 5739 ft 277 kts 107°
2026-05-07 09:04 16.83735 -100.00960 5520 ft 274 kts 109°
2026-05-07 09:04 16.83121 -99.99042 4831 ft 282 kts 108°
2026-05-07 09:04 16.82521 -99.97136 4461 ft 270 kts 109°
2026-05-07 09:04 16.81944 -99.95292 4117 ft 265 kts 108°
2026-05-07 09:05 16.81375 -99.93475 3748 ft 262 kts 109°
2026-05-07 09:05 16.80808 -99.91666 3370 ft 260 kts 108°
2026-05-07 09:05 16.80251 -99.89890 3009 ft 254 kts 108°
2026-05-07 09:05 16.79718 -99.88188 2813 ft 235 kts 108°
2026-05-07 09:06 16.79241 -99.86660 2586 ft 209 kts 108°
2026-05-07 09:06 16.78795 -99.85179 1780 ft 217 kts 107°
2026-05-07 09:06 16.78375 -99.83688 1369 ft 204 kts 106°
2026-05-07 09:06 16.77937 -99.82361 1161 ft 184 kts 113°
2026-05-07 09:07 16.77503 -99.81259 1124 ft 149 kts 108°
2026-05-07 09:07 16.77248 -99.80343 862 ft 139 kts 103°
2026-05-07 09:07 16.76963 -99.79388 560 ft 137 kts 104°
2026-05-07 09:07 16.76615 -99.78376 402 ft 161 kts 99°
2026-05-07 09:08 16.76254 -99.77204 355 ft 180 kts 99°
2026-05-07 09:08 16.75867 -99.75999 145 ft 167 kts 96°
2026-05-07 09:08 16.75571 -99.74984 20 ft 146 kts 90°
2026-05-07 09:08 16.75332 -99.74091 19 ft 92 kts 135°
2026-05-07 09:09 16.75184 -99.73696 16 ft 39 kts 107°
2026-05-07 09:09 16.75136 -99.73543 16 ft 15 kts 109°
2026-05-07 09:09 16.75098 -99.73428 17 ft 17 kts 103°
2026-05-07 09:09 16.75151 -99.73348 18 ft 13 kts 21°
2026-05-07 09:10 16.75235 -99.73340 16 ft 11 kts 347°
2026-05-07 09:10 16.75282 -99.73390 16 ft 9 kts 293°
2026-05-07 09:10 16.75304 -99.73450 17 ft 8 kts 289°
2026-05-07 09:10 16.75322 -99.73505 16 ft 8 kts 289°
2026-05-07 09:11 16.75341 -99.73558 16 ft 8 kts 288°
2026-05-07 09:11 16.75359 -99.73620 18 ft 12 kts 286°
2026-05-07 09:11 16.75399 -99.73751 -1 ft 25 kts 289°
2026-05-07 09:11 16.75468 -99.73976 9 ft 54 kts 288°
2026-05-07 09:12 16.75652 -99.74559 8 ft 90 kts 288°
2026-05-07 09:12 16.75810 -99.75061 10 ft 55 kts 288°
2026-05-07 09:12 16.75931 -99.75374 9 ft 33 kts 309°
2026-05-07 09:12 16.76013 -99.75489 9 ft 11 kts 292°
2026-05-07 09:13 16.76030 -99.75542 9 ft 7 kts 289°
2026-05-07 09:13 16.76050 -99.75585 7 ft 4 kts 322°
2026-05-07 09:13 16.76056 -99.75585 9 ft 1 kts 11°
2026-05-07 09:13 16.76102 -99.75570 8 ft 10 kts 17°
2026-05-07 09:14 16.76145 -99.75555 8 ft 0 kts 18°